Time,TemperatureF,DewpointF,PressureIn,WindDirection,WindDirectionDegrees,WindSpeedMPH,WindSpeedGustMPH,Humidity,HourlyPrecipIn,Conditions,Clouds,dailyrainin,SoftwareType,DateUTC
2013-07-24 00:43:00,63.0,63.0,-100.00,East,81,-999.0,5.0,100,-99.99,,,-99.99,,2013-07-24 07:43:00,
2013-07-24 00:53:00,63.0,63.0,-100.00,East,81,-999.0,5.0,100,-99.99,,,-99.99,,2013-07-24 07:53:00,
2013-07-24 01:02:00,63.0,63.0,-100.00,East,84,-999.0,5.0,100,-99.99,,,-99.99,,2013-07-24 08:02:00,
2013-07-24 01:12:00,63.0,63.0,-100.00,East,84,-999.0,5.0,100,-99.99,,,-99.99,,2013-07-24 08:12:00,
2013-07-24 01:22:00,63.0,63.0,-100.00,East,84,-999.0,5.0,100,-99.99,,,-99.99,,2013-07-24 08:22:00,
2013-07-24 02:02:00,63.0,63.0,-100.00,WNW,288,-999.0,1.0,100,-99.99,,,-99.99,,2013-07-24 09:02:00,
2013-07-24 02:12:00,63.0,63.0,-100.00,WNW,288,-999.0,1.0,100,-99.99,,,-99.99,,2013-07-24 09:12:00,
2013-07-24 02:22:00,63.0,63.0,-100.00,WNW,288,-999.0,1.0,100,-99.99,,,-99.99,,2013-07-24 09:22:00,
2013-07-24 02:32:00,63.0,63.0,-100.00,WNW,288,-999.0,1.0,100,-99.99,,,-99.99,,2013-07-24 09:32:00,
2013-07-24 02:43:00,62.0,62.0,-100.00,WNW,291,-999.0,1.0,100,-99.99,,,0.00,,2013-07-24 09:43:00,
2013-07-24 02:53:00,62.0,62.0,-100.00,WNW,291,-999.0,1.0,100,-99.99,,,0.00,,2013-07-24 09:53:00,
2013-07-24 03:02:00,62.0,62.0,-100.00,WNW,283,-999.0,0.0,100,-99.99,,,-99.99,,2013-07-24 10:02:00,
2013-07-24 03:12:00,62.0,62.0,-100.00,WNW,283,-999.0,0.0,100,-99.99,,,-99.99,,2013-07-24 10:12:00,
2013-07-24 03:22:00,62.0,62.0,-100.00,WNW,283,-999.0,0.0,100,-99.99,,,-99.99,,2013-07-24 10:22:00,
2013-07-24 03:32:00,62.0,62.0,-100.00,WNW,283,-999.0,0.0,100,-99.99,,,-99.99,,2013-07-24 10:32:00,
2013-07-24 03:43:00,63.0,63.0,-100.00,WNW,290,-999.0,1.0,100,-99.99,,,0.00,,2013-07-24 10:43:00,
2013-07-24 03:53:00,63.0,63.0,-100.00,WNW,290,-999.0,1.0,100,-99.99,,,0.00,,2013-07-24 10:53:00,
2013-07-24 04:02:00,63.0,63.0,-100.00,West,268,-999.0,1.0,100,-99.99,,,-99.99,,2013-07-24 11:02:00,
2013-07-24 04:12:00,63.0,63.0,-100.00,West,268,-999.0,1.0,100,-99.99,,,-99.99,,2013-07-24 11:12:00,
2013-07-24 04:22:00,63.0,63.0,29.88,West,268,-999.0,0.0,100,-99.99,,,-99.99,,2013-07-24 11:22:00,
2013-07-24 04:32:00,62.0,62.0,29.88,WSW,252,-999.0,0.0,100,-99.99,,,-99.99,,2013-07-24 11:32:00,
2013-07-24 04:44:00,62.0,62.0,29.88,WSW,252,-999.0,0.0,100,-99.99,,,-99.99,,2013-07-24 11:44:00,
2013-07-24 04:52:00,62.0,62.0,-100.00,WSW,252,-999.0,0.0,100,-99.99,,,-99.99,,2013-07-24 11:52:00,
2013-07-24 05:02:00,62.0,62.0,-100.00,WSW,252,-999.0,0.0,100,-99.99,,,-99.99,,2013-07-24 12:02:00,
2013-07-24 05:12:00,62.0,62.0,-100.00,WSW,252,-999.0,0.0,100,-99.99,,,-99.99,,2013-07-24 12:12:00,
2013-07-24 05:22:00,62.0,62.0,-100.00,WSW,252,-999.0,0.0,100,-99.99,,,-99.99,,2013-07-24 12:22:00,
2013-07-24 05:32:00,62.0,62.0,-100.00,WSW,252,-999.0,0.0,100,-99.99,,,-99.99,,2013-07-24 12:32:00,
2013-07-24 05:42:00,63.0,63.0,-100.00,WSW,252,-999.0,0.0,100,-99.99,,,0.00,,2013-07-24 12:42:00,
2013-07-24 05:52:00,63.0,63.0,-100.00,WSW,252,-999.0,0.0,100,-99.99,,,0.00,,2013-07-24 12:52:00,
2013-07-24 06:02:00,63.0,63.0,-100.00,WSW,252,-999.0,0.0,100,-99.99,,,0.00,,2013-07-24 13:02:00,
2013-07-24 06:12:00,63.0,63.0,-100.00,South,190,-999.0,0.0,100,-99.99,,,-99.99,,2013-07-24 13:12:00,
2013-07-24 06:22:00,63.0,63.0,-100.00,South,190,-999.0,0.0,100,-99.99,,,-99.99,,2013-07-24 13:22:00,
2013-07-24 06:32:00,63.0,63.0,-100.00,WSW,248,-999.0,0.0,100,-99.99,,,0.00,,2013-07-24 13:32:00,
2013-07-24 06:43:00,63.0,63.0,-100.00,WSW,248,-999.0,0.0,100,-99.99,,,0.00,,2013-07-24 13:43:00,
2013-07-24 06:53:00,63.0,63.0,-100.00,WSW,248,-999.0,1.0,100,-99.99,,,0.00,,2013-07-24 13:53:00,
2013-07-24 07:12:00,62.0,62.0,-100.00,WSW,254,-999.0,1.0,100,-99.99,,,-99.99,,2013-07-24 14:12:00,
2013-07-24 07:22:00,62.0,62.0,-100.00,WSW,254,-999.0,1.0,100,-99.99,,,-99.99,,2013-07-24 14:22:00,
2013-07-24 07:32:00,62.0,62.0,-100.00,WSW,254,-999.0,1.0,100,-99.99,,,-99.99,,2013-07-24 14:32:00,
2013-07-24 07:43:00,63.0,63.0,-100.00,NNE,31,-999.0,1.0,100,-99.99,,,0.00,,2013-07-24 14:43:00,
2013-07-24 07:55:00,63.0,63.0,-100.00,NNE,31,-999.0,1.0,100,-99.99,,,0.00,,2013-07-24 14:55:00,
2013-07-24 08:02:00,63.0,63.0,-100.00,NNE,31,-999.0,1.0,100,-99.99,,,0.00,,2013-07-24 15:02:00,
2013-07-24 09:02:00,63.0,63.0,-100.00,WSW,255,-999.0,2.0,100,-99.99,,,-99.99,,2013-07-24 16:02:00,
2013-07-24 09:12:00,63.0,63.0,-100.00,WSW,255,-999.0,2.0,100,-99.99,,,-99.99,,2013-07-24 16:12:00,
2013-07-24 09:22:00,63.0,63.0,-100.00,WSW,255,-999.0,2.0,100,-99.99,,,-99.99,,2013-07-24 16:22:00,
2013-07-24 09:32:00,63.0,63.0,-100.00,NW,305,-999.0,6.0,100,-99.99,,,-99.99,,2013-07-24 16:32:00,
2013-07-24 09:43:00,63.0,63.0,-100.00,NW,305,-999.0,6.0,100,-99.99,,,-99.99,,2013-07-24 16:43:00,
2013-07-24 09:53:00,63.0,63.0,-100.00,NW,305,-999.0,6.0,100,-99.99,,,-99.99,,2013-07-24 16:53:00,
2013-07-24 10:02:00,64.0,64.0,-100.00,WSW,257,-999.0,6.0,100,-99.99,,,-99.99,,2013-07-24 17:02:00,
2013-07-24 10:12:00,64.0,64.0,-100.00,WSW,257,-999.0,6.0,100,-99.99,,,-99.99,,2013-07-24 17:12:00,
2013-07-24 10:22:00,64.0,64.0,29.91,WSW,257,-999.0,6.0,100,-99.99,,,-99.99,,2013-07-24 17:22:00,
2013-07-24 10:33:00,65.0,65.0,29.91,SSW,207,-999.0,6.0,100,-99.99,,,-99.99,,2013-07-24 17:33:00,
2013-07-24 10:43:00,65.0,65.0,29.91,SSW,207,-999.0,6.0,100,-99.99,,,-99.99,,2013-07-24 17:43:00,
2013-07-24 10:53:00,65.0,65.0,-100.00,SSW,207,-999.0,6.0,100,-99.99,,,-99.99,,2013-07-24 17:53:00,
2013-07-24 11:22:00,68.0,67.0,-100.00,SSW,213,-999.0,8.0,96,-99.99,,,-99.99,,2013-07-24 18:22:00,
2013-07-24 11:32:00,67.0,66.0,-100.00,WNW,293,-999.0,8.0,95,-99.99,,,-99.99,,2013-07-24 18:32:00,
2013-07-24 11:43:00,67.0,66.0,-100.00,WNW,293,-999.0,8.0,95,-99.99,,,-99.99,,2013-07-24 18:43:00,
2013-07-24 11:52:00,67.0,66.0,-100.00,WNW,293,-999.0,10.0,95,-99.99,,,-99.99,,2013-07-24 18:52:00,
2013-07-24 12:53:00,68.0,67.0,-100.00,SSW,192,-999.0,10.0,95,-99.99,,,0.00,,2013-07-24 19:53:00,
2013-07-24 13:02:00,68.0,67.0,-100.00,SSW,192,-999.0,10.0,95,-99.99,,,0.00,,2013-07-24 20:02:00,
2013-07-24 13:13:00,69.0,-99.9,-100.00,WSW,254,-999.0,-999.0,-999,-99.99,,,-99.99,,2013-07-24 20:13:00,
2013-07-24 13:23:00,68.0,-99.9,29.95,NNW,335,-999.0,14.0,0,-99.99,,,-99.99,,2013-07-24 20:23:00,
2013-07-24 13:33:00,68.0,-99.9,29.95,NNW,335,-999.0,14.0,0,-99.99,,,-99.99,,2013-07-24 20:33:00,
2013-07-24 13:43:00,68.0,-99.9,29.95,NNW,335,-999.0,14.0,0,-99.99,,,-99.99,,2013-07-24 20:43:00,
2013-07-24 13:53:00,67.0,-99.9,-100.00,West,270,-999.0,12.0,0,-99.99,,,-99.99,,2013-07-24 20:53:00,
2013-07-24 14:03:00,67.0,-99.9,-100.00,West,270,-999.0,12.0,0,-99.99,,,-99.99,,2013-07-24 21:03:00,
2013-07-24 14:12:00,67.0,-99.9,-100.00,West,270,-999.0,12.0,0,-99.99,,,-99.99,,2013-07-24 21:12:00,
2013-07-24 14:32:00,66.0,-99.9,-100.00,West,281,-999.0,15.0,0,-99.99,,,-99.99,,2013-07-24 21:32:00,
2013-07-24 14:44:00,66.0,-99.9,-100.00,West,281,-999.0,15.0,0,-99.99,,,-99.99,,2013-07-24 21:44:00,
2013-07-24 14:53:00,66.0,-99.9,-100.00,West,281,-999.0,15.0,0,-99.99,,,-99.99,,2013-07-24 21:53:00,
2013-07-24 15:02:00,66.0,-99.9,-100.00,West,281,-999.0,15.0,0,-99.99,,,-99.99,,2013-07-24 22:02:00,
2013-07-24 15:32:00,68.0,-99.9,-100.00,West,280,-999.0,-999.0,0,-99.99,,,-99.99,,2013-07-24 22:32:00,
2013-07-24 15:43:00,68.0,-99.9,-100.00,West,280,-999.0,-999.0,0,-99.99,,,-99.99,,2013-07-24 22:43:00,
2013-07-24 17:22:00,65.0,-99.9,-100.00,NW,313,-999.0,14.0,-999,-99.99,,,-99.99,,2013-07-25 00:22:00,
2013-07-24 17:43:00,65.0,65.0,-100.00,NW,313,-999.0,14.0,100,-99.99,,,0.00,,2013-07-25 00:43:00,
2013-07-24 17:53:00,65.0,65.0,-100.00,NW,313,-999.0,14.0,100,-99.99,,,0.00,,2013-07-25 00:53:00,
2013-07-24 18:12:00,65.0,65.0,-100.00,West,271,-999.0,12.0,100,-99.99,,,-99.99,,2013-07-25 01:12:00,
2013-07-24 18:22:00,65.0,65.0,-100.00,West,271,-999.0,12.0,100,-99.99,,,-99.99,,2013-07-25 01:22:00,
2013-07-24 18:32:00,64.0,64.0,-100.00,SW,236,-999.0,13.0,100,-99.99,,,0.00,,2013-07-25 01:32:00,
2013-07-24 18:43:00,64.0,64.0,-100.00,SW,236,-999.0,13.0,100,-99.99,,,0.00,,2013-07-25 01:43:00,
2013-07-24 18:53:00,64.0,64.0,-100.00,SW,236,-999.0,13.0,100,-99.99,,,0.00,,2013-07-25 01:53:00,
2013-07-24 19:02:00,64.0,64.0,-100.00,SW,236,-999.0,13.0,100,-99.99,,,0.00,,2013-07-25 02:02:00,
2013-07-24 20:45:00,63.0,63.0,-100.00,WSW,257,-999.0,7.0,100,-99.99,,,0.00,,2013-07-25 03:45:00,
2013-07-24 20:52:00,63.0,63.0,-100.00,WSW,257,-999.0,7.0,100,-99.99,,,0.00,,2013-07-25 03:52:00,
2013-07-24 21:02:00,63.0,63.0,-100.00,WSW,257,-999.0,7.0,100,-99.99,,,0.00,,2013-07-25 04:02:00,
2013-07-24 21:33:00,63.0,-99.9,-100.00,SW,229,-999.0,-999.0,1,-99.99,,,-99.99,,2013-07-25 04:33:00,
2013-07-24 21:43:00,63.0,63.0,-100.00,SW,229,-999.0,-999.0,100,-99.99,,,0.00,,2013-07-25 04:43:00,
2013-07-24 21:53:00,63.0,63.0,-100.00,SW,229,-999.0,1.0,100,-99.99,,,0.00,,2013-07-25 04:53:00,
2013-07-24 22:02:00,63.0,63.0,-100.00,West,261,-999.0,1.0,100,-99.99,,,-99.99,,2013-07-25 05:02:00,
2013-07-24 22:12:00,63.0,63.0,-100.00,West,261,-999.0,1.0,100,-99.99,,,-99.99,,2013-07-25 05:12:00,
2013-07-24 22:22:00,63.0,63.0,-100.00,West,261,-999.0,1.0,100,-99.99,,,-99.99,,2013-07-25 05:22:00,
2013-07-24 22:32:00,63.0,63.0,-100.00,West,261,-999.0,1.0,100,-99.99,,,-99.99,,2013-07-25 05:32:00,
2013-07-24 22:43:00,63.0,63.0,-100.00,WNW,298,-999.0,0.0,100,-99.99,,,-99.99,,2013-07-25 05:43:00,
2013-07-24 22:52:00,63.0,63.0,-100.00,WNW,298,-999.0,0.0,100,-99.99,,,-99.99,,2013-07-25 05:52:00,
2013-07-24 23:02:00,63.0,63.0,-100.00,West,272,-999.0,0.0,100,-99.99,,,-99.99,,2013-07-25 06:02:00,
2013-07-24 23:12:00,63.0,63.0,-100.00,West,272,-999.0,0.0,100,-99.99,,,-99.99,,2013-07-25 06:12:00,
2013-07-24 23:22:00,63.0,63.0,-100.00,West,272,-999.0,0.0,100,-99.99,,,-99.99,,2013-07-25 06:22:00,
2013-07-24 23:32:00,63.0,63.0,-100.00,West,272,-999.0,0.0,100,-99.99,,,-99.99,,2013-07-25 06:32:00,